Onweer van: 25-07-2021 11:00 tot: 20:00 waarschuwing voor: Onweer niveau: Geel info button


waarschuwing voor Onweer Meer informatie blitzortung!


Regen radar Meer informatie rain snow radar


Bezoek onze andere website:

Template documentation
and downloads

And another site



15 daagse weersverwachting Helsingør (DK)

  • Overzicht
  • Per uur
  • 15 dagen
  • Extra
  • Vergelijk
  • Kaarten
  • Dagkaart
  • Meer »
  • Info
  • Statistieken
  • Directe link
    Temp 6h Neerslag Wind  
 05:04     21:30    Daglengte: 16:26 Vandaag
08:00
20°
 
8
14:00
24°
 
8
20:00
23°
 
7
 05:06     21:28    Daglengte: 16:22 Morgen
02:00
20°
 
7
08:00
21°
 
6
14:00
25°
0.6 mm
7
20:00
24°
0.2 mm
5
 05:07     21:26    Daglengte: 16:19 Dinsdag 27 Jul
02:00
20°
7.6 mm
4
warningclass
08:00
20°
5.1 mm
4
warningclass
14:00
22°
0.8 mm
5
20:00
21°
0.6 mm
3
 05:09     21:24    Daglengte: 16:15 Woensdag 28 Jul
02:00
18°
 
3
Locatie info
Region: Hovedstaden
Latitude: 56.0334°N
Longitude: 12.6135°E
8 masl
Postcode: 3000
Temp/Neerslag /Baro Onweer/Dauwpunt
    Temp Baro 1h Neerslag Dauwpunt Wind UV Bewolking  
 05:04     21:30    Daglengte: 16:26 Vandaag
06:00
19°
1013.4 hPa   15.5°
8
Windvlaag: 4 m/s
68%
07:00
19°
1013.3 hPa   15.5°
8
Windvlaag: 4.5 m/s
71%
08:00
20°
1013.3 hPa   15.3°
8
Windvlaag: 4.6 m/s
69%
09:00
20°
1013.5 hPa   14.9°
8
Windvlaag: 4.5 m/s
70%
10:00
21°
1013.6 hPa   14.7°
8
Windvlaag: 4.9 m/s
73%
11:00
22°
1013.6 hPa   14.4°
8
Windvlaag: 5.9 m/s
62%
12:00
23°
1013.6 hPa   14.3°
8
Windvlaag: 5.7 m/s
64%
13:00
24°
1013.6 hPa   13.9°
8
Windvlaag: 5.6 m/s
46%
14:00
24°
1013.4 hPa   12.9°
8
Windvlaag: 5.7 m/s
34%
15:00
24°
1013.3 hPa   13.4°
7
Windvlaag: 5.1 m/s
59%
16:00
25°
1013.2 hPa   14.0°
7
Windvlaag: 4.8 m/s
62%
17:00
25°
1012.9 hPa   13.8°
7
Windvlaag: 5 m/s
51%
18:00
24°
1012.7 hPa
12%
12.9°
7
Windvlaag: 5 m/s
51%
19:00
24°
1012.8 hPa   12.9°
7
Windvlaag: 5.3 m/s
51%
20:00
23°
1012.7 hPa   13.9°
7
Windvlaag: 5.7 m/s
29%
21:00
23°
1013.0 hPa   14.8°
6
Windvlaag: 4.4 m/s
23%
22:00
22°
1013.0 hPa   15.4°
6
Windvlaag: 3.1 m/s
30%
23:00
21°
1013.0 hPa   15.6°
6
Windvlaag: 3.2 m/s
41%
 05:06     21:28    Daglengte: 16:22 Morgen
00:00
21°
1012.8 hPa   15.7°
6
Windvlaag: 2.8 m/s
25%
01:00
20°
1012.6 hPa   16.2°
7
Windvlaag: 2.7 m/s
19%
02:00
20°
1012.3 hPa   16.7°
7
Windvlaag: 2.8 m/s
35%
03:00
20°
1012.0 hPa   16.8°
7
Windvlaag: 3 m/s
60%
04:00
20°
1011.7 hPa   17.1°
7
Windvlaag: 2.9 m/s
69%
05:00
20°
1011.8 hPa   17.6°
7
Windvlaag: 3 m/s
63%
06:00
20°
1011.6 hPa   17.8°
7
Windvlaag: 2.5 m/s
73%
07:00
21°
1011.7 hPa
31%
18.0°
7
Windvlaag: 2.1 m/s
72%
08:00
21°
1011.6 hPa
35%
17.4°
6
Windvlaag: 2.3 m/s
84%
09:00
22°
1011.8 hPa
35%
17.0°
6
Windvlaag: 3.2 m/s
82%
10:00
23°
1011.8 hPa
35%
17.0°
6
Windvlaag: 3.4 m/s
81%
11:00
24°
1011.8 hPa
34%
15.9°
6
Windvlaag: 4.9 m/s
83%
12:00
24°
1011.7 hPa
73%
14.9°
6
Windvlaag: 5.3 m/s
76%
13:00
25°
1011.4 hPa 0.6 mm
76%
14.2°
7
Windvlaag: 5.4 m/s
84%
14:00
25°
1010.9 hPa
80%
13.9°
7
Windvlaag: 4.8 m/s
72%
15:00
25°
1010.5 hPa 0.2 mm
80%
12.8°
8
Windvlaag: 5.2 m/s
65%
16:00
25°
1010.4 hPa
80%
12.9°
7
Windvlaag: 4.7 m/s
82%
17:00
25°
1010.1 hPa
80%
15.0°
6
Windvlaag: 4.3 m/s
71%
18:00
25°
1009.9 hPa
80%
16.1°
6
Windvlaag: 3.9 m/s
65%
19:00
25°
1009.7 hPa
80%
17.1°
5
Windvlaag: 3.8 m/s
80%
20:00
24°
1009.6 hPa
80%
17.9°
5
Windvlaag: 3 m/s
83%
21:00
23°
1009.8 hPa
82%
19.2°
5
Windvlaag: 2.9 m/s
85%
22:00
22°
1010.0 hPa 0.7 mm
82%
19.3°
4
Windvlaag: 4.1 m/s
85%
23:00
21°
1009.9 hPa 0.8 mm
99%
18.3°
3
Windvlaag: 2 m/s
97%
 05:07     21:26    Daglengte: 16:19 Dinsdag 27 Jul
00:00
21°
1009.8 hPa 1.9 mm
100%
18.0°
3
Windvlaag: -0.1 m/s
94%
01:00
20°
1009.4 hPa 2.3 mm
100%
18.1°
3
Windvlaag: -1.4 m/s
88% warningclass
02:00
20°
1009.4 hPa 2.1 mm
100%
18.1°
4
Windvlaag: -0.8 m/s
97% warningclass
03:00
20°
1009.2 hPa 2.3 mm
100%
18.4°
4
Windvlaag: 5.8 m/s
92%
04:00
20°
1008.8 hPa 1.0 mm
95%
18.8°
3
Windvlaag: 5.6 m/s
91%
05:00
20°
1008.6 hPa 0.4 mm
92%
19.1°
4
Windvlaag: 5.1 m/s
88%
06:00
20°
1008.3 hPa 0.7 mm
95%
18.9°
4
Windvlaag: 4.2 m/s
83%
07:00
20°
1008.2 hPa 0.4 mm
93%
18.7°
3
Windvlaag: 5.3 m/s
96%
08:00
20°
1008.2 hPa 0.4 mm
90%
18.9°
4
Windvlaag: 4.9 m/s
81% warningclass
09:00
21°
1008.0 hPa
92%
18.3°
3
Windvlaag: 5.5 m/s
13%
10:00
22°
1008.2 hPa
100%
17.5°
4
Windvlaag: 6.1 m/s
8%
11:00
22°
1008.2 hPa 0.3 mm
100%
16.2°
4
Windvlaag: 6.9 m/s
51%
12:00
22°
1008.1 hPa
100%
16.0°
4
Windvlaag: 7 m/s
55%
13:00
22°
1008.3 hPa 0.2 mm
100%
15.4°
5
Windvlaag: 6.7 m/s
65%
14:00
22°
1008.6 hPa 0.3 mm
100%
17.8°
5
Windvlaag: 6.9 m/s
20%
15:00
23°
1008.4 hPa
91%
18.3°
5
Windvlaag: 6.3 m/s
20%
16:00
21°
1008.7 hPa
98%
17.1°
5
Windvlaag: 5.8 m/s
25%
17:00
21°
1008.9 hPa 0.3 mm
99%
17.0°
5
Windvlaag: 5.8 m/s
20%
18:00
22°
1008.7 hPa 0.3 mm
90%
17.4°
4
Windvlaag: 4.8 m/s
19%
19:00
22°
1008.9 hPa
87%
17.2°
4
Windvlaag: 4.1 m/s
20%
20:00
21°
1009.1 hPa
90%
16.7°
3
Windvlaag: 2.7 m/s
19%
21:00
21°
1009.6 hPa
31%
16.9°
3
Windvlaag: 1.6 m/s
17%
22:00
20°
1010.2 hPa
32%
17.0°
3
Windvlaag: 2.5 m/s
17%
23:00
19°
1010.4 hPa
25%
17.1°
3
Windvlaag: 3 m/s
38%
 05:09     21:24    Daglengte: 16:15 Woensdag 28 Jul
00:00
19°
1010.5 hPa
25%
17.3°
3
Windvlaag: 4 m/s
28%
01:00
18°
1010.3 hPa
22%
17.1°
3
Windvlaag: 2.7 m/s
44%
02:00
18°
1010.0 hPa
21%
16.6°
3
Windvlaag: 2.6 m/s
53%
03:00
17°
1006.7 hPa 0.9 mm
100%
14.4°
3
Windvlaag: 3.2 m/s
3%
04:00
17°
1006.7 hPa 0.9 mm
100%
15.4°
3
Windvlaag: 5.5 m/s
80%
05:00
18°
1006.1 hPa 0.9 mm
100%
16.0°
3
Windvlaag: 3.4 m/s
94%
Temp/Neerslag /Baro Onweer/Dauwpunt
    Temp Baro Neerslag Dauwpunt Wind Bewolking  
 05:04     21:30    Daglengte: 16:26 Vandaag
08:00
20°
1013.3 hPa   15.3°
8
69%
11:00
22°
1013.6 hPa   14.4°
8
62%
14:00
24°
1013.4 hPa   12.9°
8
34%
17:00
25°
1012.9 hPa   13.8°
7
51%
20:00
23°
1012.7 hPa   13.9°
7
29%
23:00
21°
1013.0 hPa   15.6°
6
41%
 05:06     21:28    Daglengte: 16:22 Morgen
02:00
20°
1012.3 hPa   16.7°
7
35%
05:00
20°
1011.8 hPa   17.6°
7
63%
08:00
21°
1011.6 hPa   17.4°
6
84%
11:00
24°
1011.8 hPa   15.9°
6
83%
14:00
25°
1010.9 hPa 0.6 mm 13.9°
7
72%
17:00
25°
1010.1 hPa 0.2 mm 15.0°
6
71%
20:00
24°
1009.6 hPa   17.9°
5
83%
23:00
21°
1009.9 hPa 1.5 mm 18.3°
3
97%
 05:07     21:26    Daglengte: 16:19 Dinsdag 27 Jul
02:00
20°
1009.4 hPa 6.2 mm 18.1°
4
97% warningclass
05:00
20°
1008.6 hPa 3.7 mm 19.1°
4
88%
08:00
20°
1008.2 hPa 1.4 mm 18.9°
4
81% warningclass
11:00
22°
1008.2 hPa 0.3 mm 16.2°
4
51%
14:00
22°
1008.6 hPa 0.5 mm 17.8°
5
20%
17:00
21°
1008.9 hPa 0.3 mm 17.0°
5
20%
20:00
21°
1009.1 hPa 0.3 mm 16.7°
3
19%
23:00
19°
1010.4 hPa   17.1°
3
38%
 05:09     21:24    Daglengte: 16:15 Woensdag 28 Jul
02:00
18°
1010.0 hPa   16.6°
3
53%
05:00
18°
1006.1 hPa 2.6 mm 16.0°
3
94%
08:00
20°
1004.7 hPa 3.5 mm 17.1°
8
91%
11:00
19°
1007.7 hPa 10.7 mm 16.1°
3
1%
14:00
23°
1007.3 hPa 12.5 mm 12.4°
6
1%
17:00
22°
1007.8 hPa 12.8 mm 13.4°
6
1%
20:00
20°
1008.0 hPa 13.4 mm 15.4°
7
1%
23:00
17°
1008.9 hPa 13.7 mm 14.9°
7
0%
 05:11     21:22    Daglengte: 16:11 Donderdag 29 Jul
02:00
17°
1009.2 hPa 13.7 mm 13.8°
6
0%
05:00
17°
1009.3 hPa 13.9 mm 12.9°
6
1%
08:00
17°
1009.6 hPa 13.9 mm 12.9°
6
1%
11:00
20°
1009.1 hPa 13.9 mm 10.0°
5
0%
14:00
22°
1008.0 hPa 14.0 mm 8.7°
6
0%
17:00
23°
1007.2 hPa 14.0 mm 10.3°
6
0%
20:00
21°
1006.5 hPa 14.1 mm 11.4°
5
1%
23:00
19°
1005.1 hPa 14.2 mm 12.9°
6
1%
 05:13     21:20    Daglengte: 16:07 Vrijdag 30 Jul
02:00
18°
1003.7 hPa 14.6 mm 13.9°
7
1%
05:00
16°
1003.7 hPa 15.5 mm 12.9°
9
1%
08:00
17°
1004.1 hPa 15.5 mm 11.6°
8
1%
11:00
19°
1004.3 hPa 15.6 mm 8.5°
10
0%
14:00
21°
1004.2 hPa 15.6 mm 7.7°
10
0%
17:00
19°
1003.8 hPa 15.8 mm 9.1°
9
1%
20:00
17°
1003.5 hPa 16.5 mm 12.8°
10
1%
23:00
16°
1003.3 hPa 17.2 mm 12.9°
9
0%
 05:15     21:18    Daglengte: 16:03 Zaterdag 31 Jul
02:00
16°
1003.7 hPa 18.0 mm 12.5°
9
1%
05:00
15°
1003.4 hPa 18.3 mm 13.4°
8
0%
08:00
17°
1003.2 hPa 18.8 mm 13.5°
8
1%
11:00
19°
1002.9 hPa 19.6 mm 12.6°
7
1%
14:00
19°
1002.5 hPa 21.9 mm 13.6°
6
1%
17:00
18°
1002.0 hPa 24.8 mm 14.0°
9
1%
20:00
16°
1002.3 hPa 27.0 mm 13.8°
6
1%
23:00
15°
1002.6 hPa 29.1 mm 13.2°
7
1%
 05:17     21:16    Daglengte: 15:59 Zondag 01 Aug
02:00
15°
1003.2 hPa 29.9 mm 12.8°
5
1%
05:00
14°
1003.9 hPa   11.9°
5
1%
08:00
16°
1005.2 hPa 61.2 mm 10.3°
7
1%
14:00
18°
1007.5 hPa 61.7 mm 8.9°
8
0%
20:00
17°
1008.3 hPa 62.3 mm 9.3°
6
1%
 05:18     21:14    Daglengte: 15:56 Maandag 02 Aug
02:00
15°
1009.0 hPa 62.8 mm 10.3°
4
1%
08:00
15°
1009.2 hPa 65.6 mm 10.9°
3
1%
14:00
17°
1010.4 hPa 73.5 mm 9.5°
5
1%
20:00
17°
1010.5 hPa 77.8 mm 9.9°
5
1%
 05:20     21:12    Daglengte: 15:52 Dinsdag 03 Aug
02:00
14°
1011.4 hPa 83.8 mm 12.7°
4
1%
14:00
18°
1014.6 hPa 137.3 mm 9.7°
6
1%
20:00
17°
1014.5 hPa 93.5 mm 11.1°
5
1%
 05:22     21:10    Daglengte: 15:48 Woensdag 04 Aug
02:00
15°
1006.4 hPa 0.7 mm 11.5°
2
59%
08:00
16°
1006.5 hPa 0.5 mm 12.0°
3
60%
14:00
19°
1007.2 hPa 1.7 mm 11.7°
4
59%
20:00
18°
1007.8 hPa 1.8 mm 11.9°
2
65%
 05:24     21:08    Daglengte: 15:44 Donderdag 05 Aug
02:00
15°
1008.6 hPa 0.7 mm 11.4°
2
49%
08:00
16°
1009.0 hPa 0.7 mm 11.9°
2
58%
14:00
19°
1009.7 hPa 1.3 mm 11.7°
3
60%
20:00
18°
1009.9 hPa 1.0 mm 12.1°
2
55%
 05:26     21:06    Daglengte: 15:40 Vrijdag 06 Aug
02:00
15°
1010.5 hPa 0.6 mm 12.0°
2
61%
08:00
16°
1010.6 hPa 0.4 mm 12.4°
2
64%
14:00
20°
1010.9 hPa 0.9 mm 12.3°
3
70%
20:00
18°
1010.6 hPa 1.3 mm 12.8°
2
69%
 05:28     21:04    Daglengte: 15:36 Zaterdag 07 Aug
02:00
16°
1010.8 hPa 1.1 mm 12.5°
2
79%
08:00
16°
1010.2 hPa 0.2 mm 12.9°
2
76%
14:00
20°
1010.2 hPa 0.7 mm 13.0°
3
70%
20:00
18°
1009.8 hPa 1.7 mm 12.9°
3
67%
 05:30     21:02    Daglengte: 15:32 Zondag 08 Aug
02:00
16°
1009.8 hPa 1.8 mm 12.6°
2
71%
08:00
16°
1009.5 hPa 0.2 mm 13.0°
2
79%
14:00
20°
1009.9 hPa 1.5 mm 13.4°
3
75%
20:00
18°
1010.0 hPa 1.5 mm 13.5°
3
55%
 05:32     20:59    Daglengte: 15:27 Maandag 09 Aug
02:00
16°
1010.4 hPa 0.2 mm 13.1°
3
59%
08:00
17°
1010.5 hPa 1.6 mm 13.4°
3
61%
  CAPE Lifted Index Hail Supercell Tornado SRH 3km CL BTM PRES CL TOP PRES Swiss DWD icon SMHI TS
 05:04     21:30    Daglengte: 16:26 Vandaag
06:00 0 J/kg 2.1 K 0 % 0 % 0 % 0 m²/s² 0 0 7.11 3
07:00 2 J/kg 1.8 K 0 % 0 % 0 % 0 m²/s² 0 0 6.96 3
08:00 0 J/kg 1.2 K 0 % 0 % 0 % 0 m²/s² 0 0 6.09 3
09:00 0 J/kg 0.5 K 0 % 0 % 0 % 0 m²/s² 0 0 5.15 3
10:00 48 J/kg -0.1 K 0 % 0 % 0 % 0 m²/s² 0 0 4.55 3
11:00 66 J/kg 0.1 K 0 % 0 % 0 % 0 m²/s² 0 0 4.66 3
12:00 71 J/kg 0.4 K 0 % 0 % 0 % 0 m²/s² 0 0 4.96 3
13:00 104 J/kg 0.3 K 0 % 0 % 0 % 0 m²/s² 0 0 4.62 3
14:00 88 J/kg 0.4 K 0 % 0 % 0 % 0 m²/s² 0 0 4.39 3
15:00 54 J/kg 0.2 K 0 % 0 % 0 % 0 m²/s² 0 0 4.01 3
16:00 51 J/kg -0.2 K 0 % 0 % 0 % 0 m²/s² 0 0 2.8 3
17:00 47 J/kg 0.1 K 0 % 0 % 0 % 0 m²/s² 0 0 1.75 3
18:00 6 J/kg 0.3 K 0 % 0 % 0 % 0 m²/s² 0 0 1.5 3
19:00 2 J/kg 0.8 K 0 % 0 % 0 % 0 m²/s² 0 0 2.33 3
20:00 0 J/kg 1.1 K 0 % 0 % 0 % 0 m²/s² 0 0 2.42 3
21:00 4 J/kg 1.1 K 0 % 0 % 0 % 0 m²/s² 0 0 2.06 3
22:00 0 J/kg 1.1 K 0 % 0 % 0 % 0 m²/s² 0 0 2.15 3
23:00 0 J/kg 1.0 K 0 % 0 % 0 % 0 m²/s² 0 0 2.44 3
 05:06     21:28    Daglengte: 16:22 Morgen
00:00 0 J/kg -0.8 K 0 % 0 % 0 % 0 m²/s² 0 0 1.06 3
01:00 0 J/kg -1.5 K 0 % 0 % 0 % 0 m²/s² 0 0 -0.03 3
02:00 0 J/kg -1.5 K 0 % 0 % 0 % 0 m²/s² 0 0 -0.03 3
03:00 0 J/kg -1.4 K 0 % 0 % 0 % 0 m²/s² 0 0 0.13 3
04:00 0 J/kg -1.4 K 0 % 0 % 0 % 0 m²/s² 0 0 0.37 3
05:00 0 J/kg -1.8 K 0 % 0 % 0 % 0 m²/s² 0 0 -0.21 3
06:00 0 J/kg -1.2 K 0 % 0 % 0 % 0 m²/s² 0 0 -0.09 3
07:00 68 J/kg -1.4 K 0 % 0 % 0 % 0 m²/s² 0 0 -0.59 3
08:00 151 J/kg -1.1 K 0 % 0 % 0 % 0 m²/s² 0 0 -0.71 80
09:00 540 J/kg -2.2 K 0 % 0 % 0 % 0 m²/s² 0 0 -1.45 61
10:00 845 J/kg -2.6 K 0 % 0 % 0 % 0 m²/s² 0 0 -1.13 61
11:00 704 J/kg -2.0 K 0 % 0 % 0 % 0 m²/s² 0 0 0.1 61
12:00 193 J/kg -0.5 K 0 % 0 % 0 % 0 m²/s² 0 0 1.24 61
13:00 164 J/kg -0.4 K 0 % 0 % 0 % 0 m²/s² 0 0 0.38 61
14:00 22 J/kg 0.2 K 0 % 0 % 0 % 0 m²/s² 0 0 0.68 80
15:00 36 J/kg -0.6 K 0 % 0 % 0 % 0 m²/s² 0 0 0.33 61
16:00 311 J/kg -1.2 K 0 % 0 % 0 % 0 m²/s² 0 0 -0.09 61
17:00 387 J/kg -1.8 K 0 % 0 % 0 % 0 m²/s² 0 0 -0 3
18:00 460 J/kg -2.5 K 0 % 0 % 0 % 0 m²/s² 0 0 -0.31 61
19:00 431 J/kg -2.1 K 0 % 0 % 0 % 0 m²/s² 0 0 -0.18 61
20:00 542 J/kg -2.8 K 0 % 0 % 0 % 0 m²/s² 0 0 -1.51 3
21:00 431 J/kg -3.0 K 0 % 0 % 0 % 0 m²/s² 0 0 -2.04 61
22:00 357 J/kg -3.2 K 0 % 0 % 0 % 0 m²/s² 0 0 -2.57 61
23:00 313 J/kg -3.1 K 0 % 0 % 0 % 0 m²/s² 0 0 -2.08 80
 05:07     21:26    Daglengte: 16:19 Dinsdag 27 Jul
00:00 371 J/kg -3.9 K 0 % 0 % 0 % 0 m²/s² 0 0 -2.79 81
01:00 293 J/kg -2.4 K 0 % 0 % 0 % 0 m²/s² 0 0 -1.29 95
02:00 530 J/kg -2.7 K 0 % 0 % 0 % 0 m²/s² 0 0 -1.8 95
03:00 680 J/kg -2.8 K 0 % 0 % 0 % 0 m²/s² 0 0 -1.27 81
04:00 793 J/kg -3.5 K 0 % 0 % 0 % 0 m²/s² 0 0 -1.67 3
05:00 719 J/kg -4.1 K 0 % 0 % 0 % 0 m²/s² 0 0 -1.64 3
06:00 717 J/kg -4.2 K 0 % 0 % 0 % 0 m²/s² 0 0 -1.83 80
07:00 1051 J/kg -4.3 K 0 % 0 % 0 % 0 m²/s² 0 0 -1.72 80
08:00 1229 J/kg -4.8 K 0 % 0 % 0 % 0 m²/s² 0 0 -2.91 2
09:00 1369 J/kg -5.0 K 0 % 0 % 0 % 0 m²/s² 0 0 -2.69 1
10:00 1020 J/kg -3.8 K 0 % 0 % 0 % 0 m²/s² 0 0 -1.28 2
11:00 673 J/kg -2.8 K 0 % 0 % 0 % 0 m²/s² 0 0 -0.37 80
12:00 542 J/kg -2.1 K 0 % 0 % 0 % 0 m²/s² 0 0 0.63 2
13:00 555 J/kg -1.9 K 0 % 0 % 0 % 0 m²/s² 0 0 0.77 3
14:00 842 J/kg -2.5 K 0 % 0 % 0 % 0 m²/s² 0 0 0.02 80
15:00 913 J/kg -2.6 K 0 % 0 % 0 % 0 m²/s² 0 0 -0.02 2
16:00 714 J/kg -2.1 K 0 % 0 % 0 % 0 m²/s² 0 0 0.72 2
17:00 608 J/kg -1.8 K 0 % 0 % 0 % 0 m²/s² 0 0 0.42 2
18:00 494 J/kg -1.7 K 0 % 0 % 0 % 0 m²/s² 0 0 -0.11 2
19:00 429 J/kg -1.5 K 0 % 0 % 0 % 0 m²/s² 0 0 0.27 2
20:00 468 J/kg -1.7 K 0 % 0 % 0 % 0 m²/s² 0 0 0.4 2
21:00 550 J/kg -2.1 K 0 % 0 % 0 % 0 m²/s² 0 0 0.12 2
22:00 579 J/kg -2.2 K 0 % 0 % 0 % 0 m²/s² 0 0 0.23 1
23:00 591 J/kg -2.5 K 0 % 0 % 0 % 0 m²/s² 0 0 0.08 3
 05:09     21:24    Daglengte: 16:15 Woensdag 28 Jul
00:00 464 J/kg -1.8 K 0 % 0 % 0 % 0 m²/s² 0 0 1.17 3
01:00 275 J/kg -0.8 K 0 % 0 % 0 % 0 m²/s² 0 0 2.08 3
02:00 95 J/kg 0.1 K 0 % 0 % 0 % 0 m²/s² 0 0 3.31 3
03:00 21 J/kg 0.3 K 0 % 0 % 0 % 0 m²/s² 0 0 3.6
04:00 138 J/kg -0.6 K 0 % 0 % 0 % 0 m²/s² 0 0 2.19
05:00 376 J/kg -1.3 K 0 % 0 % 0 % 0 m²/s² 0 0 0.17
Temp Baro Wind Neerslag
  EWN Forecast EWN WRFDA DWD ICON FMI HIRLAM MET Norway GFS
 05:04     21:30    Daglengte: 16:26 Vandaag
08:00 19.7° 1013.3 hPa 8.2 m/s 0.0 mm 19.7° 1013.1 hPa 7.2 m/s 0.0 mm 18.8° 1013.4 hPa 4.3 m/s -2.0 mm 20.5° 1013.3 hPa 8.6 m/s 0.0 mm 19.5° 1013.5 hPa 7.8 m/s
11:00 22.4° 1013.6 hPa 8.5 m/s 0.0 mm 23.0° 1013.5 hPa 7.4 m/s 0.0 mm 21.7° 1013.6 hPa 6.0 m/s 0.0 mm 23.7° 1013.5 hPa 8.8 m/s 0.0 mm 23.0° 1013.5 hPa 8.2 m/s
14:00 24.2° 1013.4 hPa 8.1 m/s 0.0 mm 24.3° 1013.1 hPa 7.4 m/s 0.0 mm 24.1° 1013.1 hPa 6.8 m/s 0.0 mm 25.3° 1013.6 hPa 8.1 m/s 0.0 mm 24.9° 1013.3 hPa 7.5 m/s
17:00 24.5° 1012.9 hPa 7.2 m/s 0.0 mm 24.0° 1012.7 hPa 7.4 m/s 0.0 mm 24.6° 1012.9 hPa 5.6 m/s 0.0 mm 25.1° 1013.1 hPa 7.1 m/s 0.0 mm 24.2° 1012.9 hPa 7.4 m/s
20:00 23.4° 1012.7 hPa 6.6 m/s 0.0 mm 22.8° 1012.6 hPa 6.9 m/s 0.0 mm 23.0° 1012.7 hPa 5.1 m/s 0.0 mm 23.7° 1012.9 hPa 6.4 m/s 0.0 mm 22.0° 1012.6 hPa 6.7 m/s
23:00 21.1° 1013.0 hPa 6.0 m/s 0.0 mm 19.5° 1012.2 hPa 6.0 m/s 0.0 mm 20.0° 1013.3 hPa 4.5 m/s 0.0 mm 21.4° 1013.1 hPa 5.8 m/s 0.0 mm 19.8° 1013.0 hPa 6.7 m/s
 05:06     21:28    Daglengte: 16:22 Morgen
02:00 20.3° 1012.3 hPa 6.7 m/s 0.0 mm 18.9° 1011.5 hPa 6.0 m/s 0.0 mm 19.3° 1012.6 hPa 4.2 m/s 0.0 mm 20.5° 1012.0 hPa 7.0 m/s 0.0 mm 18.9° 1012.5 hPa 6.6 m/s
05:00 20.0° 1011.8 hPa 6.7 m/s 0.0 mm 18.9° 1010.6 hPa 7.2 m/s 0.0 mm 19.0° 1012.0 hPa 3.4 m/s 0.0 mm 20.1° 1011.3 hPa 7.1 m/s 0.0 mm 18.4° 1011.6 hPa 5.2 m/s
08:00 21.3° 1011.6 hPa 6.0 m/s 0.0 mm 21.2° 1010.2 hPa 5.4 m/s 0.0 mm 19.6° 1012.6 hPa 2.8 m/s 0.8 mm 21.8° 1010.8 hPa 6.5 m/s 0.0 mm 20.5° 1012.1 hPa 6.5 m/s
11:00 23.7° 1011.8 hPa 6.1 m/s 0.0 mm 23.9° 1010.1 hPa 6.2 m/s 0.0 mm 21.2° 1012.4 hPa 1.6 m/s 1.0 mm 26.1° 1010.8 hPa 7.2 m/s 0.0 mm 24.1° 1012.5 hPa 6.7 m/s
14:00 24.8° 1010.9 hPa 6.5 m/s 0.6 mm 20.8° 1010.0 hPa 4.0 m/s 0.2 mm 23.1° 1011.3 hPa 1.7 m/s 0.6 mm 28.4° 1009.4 hPa 8.8 m/s 0.0 mm 25.1° 1012.1 hPa 6.3 m/s
17:00 25.3° 1010.1 hPa 6.3 m/s 0.2 mm 21.7° 1008.2 hPa 2.9 m/s 0.7 mm 21.6° 1010.8 hPa 1.5 m/s 0.6 mm 28.1° 1008.4 hPa 9.0 m/s 0.0 mm 24.4° 1011.7 hPa 6.3 m/s
20:00 24.0° 1009.6 hPa 5.0 m/s 0.0 mm 22.2° 1007.7 hPa 1.2 m/s 0.8 mm 21.5° 1010.2 hPa 1.0 m/s 0.2 mm 25.2° 1008.0 hPa 7.2 m/s 0.0 mm 23.1° 1011.5 hPa 5.0 m/s
23:00 20.8° 1009.9 hPa 3.1 m/s 1.5 mm 20.2° 1007.3 hPa 3.4 m/s 0.8 mm 20.4° 1010.1 hPa 0.9 m/s 3.0 mm 20.5° 1011.4 hPa 4.1 m/s
 05:07     21:26    Daglengte: 16:19 Dinsdag 27 Jul
02:00 20.1° 1009.4 hPa 3.5 m/s 6.2 mm 19.6° 1007.7 hPa 3.5 m/s 0.9 mm 19.8° 1009.5 hPa 2.6 m/s 12.4 mm 19.3° 1011.2 hPa 2.8 m/s
05:00 19.8° 1008.6 hPa 4.2 m/s 3.7 mm 18.7° 1007.0 hPa 5.4 m/s 1.0 mm 19.6° 1008.8 hPa 1.9 m/s 3.7 mm 19.4° 1009.8 hPa 1.5 m/s
08:00 20.4° 1008.2 hPa 4.0 m/s 1.4 mm 20.4° 1006.8 hPa 5.2 m/s 1.0 mm 20.0° 1008.1 hPa 3.2 m/s 0.8 mm 20.5° 1009.9 hPa 2.4 m/s
11:00 21.6° 1008.2 hPa 4.4 m/s 0.3 mm 22.8° 1006.9 hPa 5.0 m/s 1.0 mm 21.3° 1008.5 hPa 4.2 m/s 0.4 mm 23.2° 1010.0 hPa 2.7 m/s
14:00 22.0° 1008.6 hPa 4.8 m/s 0.5 mm 22.0° 1007.9 hPa 4.8 m/s 1.1 mm 21.9° 1008.7 hPa 4.8 m/s 0.5 mm 24.2° 1009.6 hPa 2.4 m/s
17:00 21.3° 1008.9 hPa 4.6 m/s 0.3 mm 21.9° 1008.2 hPa 4.5 m/s 1.4 mm 21.1° 1009.1 hPa 4.6 m/s 0.3 mm 23.2° 1010.0 hPa 5.0 m/s
20:00 21.0° 1009.1 hPa 2.8 m/s 0.3 mm 21.2° 1007.9 hPa 1.2 m/s 2.1 mm 21.0° 1009.4 hPa 3.2 m/s 0.2 mm 21.5° 1009.8 hPa 4.0 m/s
23:00 19.0° 1010.4 hPa 3.1 m/s 0.0 mm 18.7° 1008.6 hPa 2.7 m/s 2.6 mm 19.0° 1010.9 hPa 3.2 m/s 0.0 mm 18.5° 1010.6 hPa 2.7 m/s
 05:09     21:24    Daglengte: 16:15 Woensdag 28 Jul
02:00 18.4° 1010.0 hPa 2.9 m/s 0.0 mm 17.1° 1006.9 hPa 2.3 m/s 2.6 mm 18.8° 1010.8 hPa 3.0 m/s 0.0 mm 17.7° 1010.0 hPa 2.3 m/s
05:00 17.7° 1006.1 hPa 2.5 m/s 2.6 mm 17.7° 1006.1 hPa 2.5 m/s 2.6 mm 17.5° 1009.0 hPa 2.5 m/s
08:00 20.0° 1004.7 hPa 7.5 m/s 3.5 mm 20.0° 1004.7 hPa 7.5 m/s 3.5 mm 19.3° 1008.4 hPa 2.9 m/s
11:00 19.2° 1007.7 hPa 2.6 m/s 10.7 mm 19.2° 1007.7 hPa 2.6 m/s 10.7 mm
14:00 23.1° 1007.3 hPa 6.3 m/s 12.5 mm 23.1° 1007.3 hPa 6.3 m/s 12.5 mm
17:00 21.9° 1007.8 hPa 6.2 m/s 12.8 mm 21.9° 1007.8 hPa 6.2 m/s 12.8 mm
20:00 19.7° 1008.0 hPa 7.0 m/s 13.4 mm 19.7° 1008.0 hPa 7.0 m/s 13.4 mm
23:00 17.3° 1008.9 hPa 6.7 m/s 13.7 mm 17.3° 1008.9 hPa 6.7 m/s 13.7 mm
 05:11     21:22    Daglengte: 16:11 Donderdag 29 Jul
02:00 16.5° 1009.2 hPa 6.3 m/s 13.7 mm 16.5° 1009.2 hPa 6.3 m/s 13.7 mm
05:00 16.9° 1009.3 hPa 6.2 m/s 13.9 mm 16.9° 1009.3 hPa 6.2 m/s 13.9 mm
08:00 17.1° 1009.6 hPa 6.2 m/s 13.9 mm 17.1° 1009.6 hPa 6.2 m/s 13.9 mm
11:00 20.5° 1009.1 hPa 5.5 m/s 13.9 mm 20.5° 1009.1 hPa 5.5 m/s 13.9 mm
14:00 22.3° 1008.0 hPa 6.5 m/s 14.0 mm 22.3° 1008.0 hPa 6.5 m/s 14.0 mm
17:00 22.5° 1007.2 hPa 6.1 m/s 14.0 mm 22.5° 1007.2 hPa 6.1 m/s 14.0 mm
20:00 20.6° 1006.5 hPa 4.8 m/s 14.1 mm 20.6° 1006.5 hPa 4.8 m/s 14.1 mm
23:00 18.6° 1005.1 hPa 5.6 m/s 14.2 mm 18.6° 1005.1 hPa 5.6 m/s 14.2 mm
 05:13     21:20    Daglengte: 16:07 Vrijdag 30 Jul
02:00 17.9° 1003.7 hPa 7.4 m/s 14.6 mm 17.9° 1003.7 hPa 7.4 m/s 14.6 mm
05:00 16.3° 1003.7 hPa 8.7 m/s 15.5 mm 16.3° 1003.7 hPa 8.7 m/s 15.5 mm
08:00 16.8° 1004.1 hPa 8.0 m/s 15.5 mm 16.8° 1004.1 hPa 8.0 m/s 15.5 mm
11:00 19.4° 1004.3 hPa 10.3 m/s 15.6 mm 19.4° 1004.3 hPa 10.3 m/s 15.6 mm
14:00 20.8° 1004.2 hPa 9.7 m/s 15.6 mm 20.8° 1004.2 hPa 9.7 m/s 15.6 mm
17:00 19.5° 1003.8 hPa 8.9 m/s 15.8 mm 19.5° 1003.8 hPa 8.9 m/s 15.8 mm
20:00 16.8° 1003.5 hPa 9.6 m/s 16.5 mm 16.8° 1003.5 hPa 9.6 m/s 16.5 mm
23:00 15.7° 1003.3 hPa 9.2 m/s 17.2 mm 15.7° 1003.3 hPa 9.2 m/s 17.2 mm
 05:15     21:18    Daglengte: 16:03 Zaterdag 31 Jul
02:00 16.1° 1003.7 hPa 9.1 m/s 18.0 mm 16.1° 1003.7 hPa 9.1 m/s 18.0 mm
05:00 15.2° 1003.4 hPa 8.2 m/s 18.3 mm 15.2° 1003.4 hPa 8.2 m/s 18.3 mm
08:00 16.9° 1003.2 hPa 7.8 m/s 18.8 mm 16.9° 1003.2 hPa 7.8 m/s 18.8 mm
11:00 19.2° 1002.9 hPa 7.3 m/s 19.6 mm 19.2° 1002.9 hPa 7.3 m/s 19.6 mm
14:00 18.9° 1002.5 hPa 6.5 m/s 21.9 mm 18.9° 1002.5 hPa 6.5 m/s 21.9 mm
17:00 17.7° 1002.0 hPa 8.7 m/s 24.8 mm 17.7° 1002.0 hPa 8.7 m/s 24.8 mm
20:00 15.6° 1002.3 hPa 5.6 m/s 27.0 mm 15.6° 1002.3 hPa 5.6 m/s 27.0 mm
23:00 15.4° 1002.6 hPa 7.1 m/s 29.1 mm 15.4° 1002.6 hPa 7.1 m/s 29.1 mm
 05:17     21:16    Daglengte: 15:59 Zondag 01 Aug
02:00 14.9° 1003.2 hPa 5.2 m/s 29.9 mm 14.9° 1003.2 hPa 5.2 m/s 29.9 mm
05:00 14.2° 1003.9 hPa 5.1 m/s 30.5 mm 14.2° 1003.9 hPa 5.1 m/s 30.5 mm
08:00 15.9° 1005.2 hPa 6.5 m/s 30.7 mm 15.9° 1005.2 hPa 6.5 m/s 30.7 mm
14:00 18.3° 1007.5 hPa 8.4 m/s 30.9 mm 18.3° 1007.5 hPa 8.4 m/s 30.9 mm
20:00 17.3° 1008.3 hPa 6.3 m/s 31.3 mm 17.3° 1008.3 hPa 6.3 m/s 31.3 mm
 05:18     21:14    Daglengte: 15:56 Maandag 02 Aug
02:00 14.6° 1009.0 hPa 4.3 m/s 31.4 mm 14.6° 1009.0 hPa 4.3 m/s 31.4 mm
08:00 14.8° 1009.2 hPa 3.3 m/s 33.3 mm 14.8° 1009.2 hPa 3.3 m/s 33.3 mm
14:00 17.2° 1010.4 hPa 4.6 m/s 37.8 mm 17.2° 1010.4 hPa 4.6 m/s 37.8 mm
20:00 16.6° 1010.5 hPa 4.8 m/s 39.1 mm 16.6° 1010.5 hPa 4.8 m/s 39.1 mm
 05:20     21:12    Daglengte: 15:52 Dinsdag 03 Aug
02:00 14.1° 1011.4 hPa 3.8 m/s 42.6 mm 14.1° 1011.4 hPa 3.8 m/s 42.6 mm
14:00 18.3° 1014.6 hPa 5.6 m/s 46.7 mm 18.3° 1014.6 hPa 5.6 m/s 46.7 mm
20:00 17.2° 1014.5 hPa 4.7 m/s 46.7 mm 17.2° 1014.5 hPa 4.7 m/s 46.7 mm
 05:22     21:10    Daglengte: 15:48 Woensdag 04 Aug
02:00 14.9° 1006.4 hPa 2.5 m/s 0.7 mm
08:00 15.9° 1006.5 hPa 2.6 m/s 0.5 mm
14:00 18.8° 1007.2 hPa 3.5 m/s 1.7 mm
20:00 17.5° 1007.8 hPa 2.4 m/s 1.8 mm
 05:24     21:08    Daglengte: 15:44 Donderdag 05 Aug
02:00 15.0° 1008.6 hPa 2.3 m/s 0.7 mm
08:00 16.1° 1009.0 hPa 2.2 m/s 0.7 mm
14:00 19.4° 1009.7 hPa 3.1 m/s 1.3 mm
20:00 18.0° 1009.9 hPa 2.0 m/s 1.0 mm
 05:26     21:06    Daglengte: 15:40 Vrijdag 06 Aug
02:00 15.2° 1010.5 hPa 2.3 m/s 0.6 mm
08:00 16.4° 1010.6 hPa 2.3 m/s 0.4 mm
14:00 19.7° 1010.9 hPa 3.0 m/s 0.9 mm
20:00 18.3° 1010.6 hPa 2.2 m/s 1.3 mm
 05:28     21:04    Daglengte: 15:36 Zaterdag 07 Aug
02:00 15.8° 1010.8 hPa 2.1 m/s 1.1 mm
08:00 16.5° 1010.2 hPa 2.2 m/s 0.2 mm
14:00 19.7° 1010.2 hPa 2.8 m/s 0.7 mm
20:00 18.0° 1009.8 hPa 2.7 m/s 1.7 mm
 05:30     21:02    Daglengte: 15:32 Zondag 08 Aug
02:00 15.8° 1009.8 hPa 2.3 m/s 1.8 mm
08:00 16.5° 1009.5 hPa 2.2 m/s 0.2 mm
14:00 19.6° 1009.9 hPa 3.2 m/s 1.5 mm
20:00 18.4° 1010.0 hPa 3.4 m/s 1.5 mm
 05:32     20:59    Daglengte: 15:27 Maandag 09 Aug
02:00 15.9° 1010.4 hPa 3.1 m/s 0.2 mm
08:00 16.8° 1010.5 hPa 3.4 m/s 1.6 mm
FMI Hirlam - 7.5 km EWN WRFDA - 12 km DWD ICON - 7 km GFS - 25 km Basiskaart






























































Updatetijd (Europe/Amsterdam) Resolutie Lengte Stap
FMI Hirlam 02:00, 08:00, 14:00, 20:00 7.5 km 49h 1h
EWN WRFDA 05:30, 11:30, 17:30, 23:30 12 km 73h 1h
DWD ICON 23:45, 05:45, 11:45, 17:45 7 km 75h 1h
GFS 02:15, 08:15, 14:15, 20:15 25 km 237h 3h
30+ mm
25-30 mm
20-25 mm
15-20 mm
10-15 mm
6-10 mm
4-6 mm
2-4 mm
1-2 mm
0.5-1 mm
0.2-0.5 mm
0.1-0.2 mm
30+ mm
25-30 mm
20-25 mm
15-20 mm
10-15 mm
6-10 mm
4-6 mm
2-4 mm
1-2 mm
0.5-1 mm
0.2-0.5 mm
0.1-0.2 mm
Sneeuwval
Natte sneeuw
Hagel
Vorst
30+ mm
25-30 mm
20-25 mm
15-20 mm
10-15 mm
6-10 mm
4-6 mm
2-4 mm
1-2 mm
0.5-1 mm
0.2-0.5 mm
0.1-0.2 mm
Sneeuwval
Natte sneeuw
Hagel
Vorst
Onweer
50 mm
40 mm
30 mm
26 mm
22 mm
18 mm
14 mm
10 mm
9 mm
8 mm
7 mm
6 mm
5 mm
4.5 mm
4 mm
3.5 mm
3 mm
2.5 mm
2 mm
1.5 mm
1 mm
0.8 mm
0.6 mm
0.4 mm
0.2 mm
0.05 mm
35°
30°
25°
20°
15°
10°
-5°
-10°
-15°
-20°
-25°
-30°
-35°
33> m/s
29 m/s
25 m/s
21 m/s
17 m/s
14 m/s
11 m/s
8 m/s
5 m/s
3 m/s
0 m/s
2600 J/kg
2400 J/kg
2200 J/kg
2000 J/kg
1800 J/kg
1600 J/kg
1400 J/kg
1200 J/kg
1000 J/kg
800 J/kg
600 J/kg
400 J/kg
200 J/kg
70 dBZ
65 dBZ
60 dBZ
55 dBZ
50 dBZ
45 dBZ
40 dBZ
35 dBZ
30 dBZ
25 dBZ
20 dBZ
15 dBZ
10 dBZ
5 dBZ
-1 K
-2 K
-3 K
-4 K
-5 K
-6 K
-7 K
-8 K
-9 K
950 m²/s²
900 m²/s²
850 m²/s²
800 m²/s²
750 m²/s²
700 m²/s²
650 m²/s²
600 m²/s²
550 m²/s²
500 m²/s²
450 m²/s²
400 m²/s²
350 m²/s²
300 m²/s²
250 m²/s²
200 m²/s²
150 m²/s²
100 m²/s²
46 m/s
44 m/s
42 m/s
40 m/s
38 m/s
36 m/s
34 m/s
32 m/s
30 m/s
28 m/s
26 m/s
24 m/s
22 m/s
20 m/s
16 m/s
12 m/s
8 m/s
4 m/s
30 m/s
28 m/s
26 m/s
24 m/s
22 m/s
20 m/s
18 m/s
16 m/s